Weather History for KMVL - January, 2013

Change the Weather History Date:

Saturday, January 5, 2013

  Actual Average Record
Temperature  
Mean Temperature 18 °F 17 °F  
Max Temperature 33 °F 27 °F 55 °F (2007)
Min Temperature 2 °F 7 °F -7 °F (1999)
Degree Days  
Heating Degree Days 47 48  
Month to date heating degree days 274 239  
Since 1 July heating degree days 3118 3377  
Cooling Degree Days 0 0  
Month to date cooling degree days 0 0  
Year to date cooling degree days 0 0  
Moisture  
Dew Point 13 °F    
Average Humidity 70    
Maximum Humidity 86    
Minimum Humidity 54    
Precipitation  
Precipitation T in 0.10 in 0.74 in (1998)
Month to date precipitation 0.14 0.52  
Year to date precipitation 0.14 0.52  
Sea Level Pressure  
Sea Level Pressure 30.07 in    
Wind  
Wind Speed 7 mph (NW)    
Max Wind Speed 24 mph    
Max Gust Speed 43 mph    
Visibility 6 miles    
Events Snow    
T = Trace of Precipitation, MM = Missing Value Source: NWS Daily Summary

Daily Weather History Graph

Daily Weather History Graph

Search for Another Location

Airport or City:

Trip Planner

Search our weather history database for the weather conditions in past years. The results will help you decide how hot, cold, wet, or windy it might be!

Date:

Astronomy

Jan. 05, 2013 Rise Set
Actual Time 7:26 AM EST 4:25 PM EST
Civil Twilight 6:53 AM EST 4:58 PM EST
Nautical Twilight 6:17 AM EST 5:35 PM EST
Astronomical Twilight 5:42 AM EST 6:10 PM EST
Moon 12:21 AM EST (1/5) 11:20 AM EST (1/5)
Length of Visible Light 10h 04m
Length of Day
8h 58m
Last Quarter, 44% of the Moon is Illuminated
Jan 5
Last Quarter
Jan 11
New
Jan 18
First Quarter
Jan 26
Full
Feb 3
Last Quarter

Hourly Weather History & Observations

Time (EST) Temp. Windchill Dew Point Humidity Pressure Visibility Wind Dir Wind Speed Gust Speed Precip Events Conditions
12:54 AM 30.0 °F 25.2 °F 21.9 °F 72% 29.77 in 4.0 mi Variable 4.6 mph - 0.01 in Snow Light Snow
1:45 AM 32.0 °F 27.5 °F 21.2 °F 64% 29.76 in 2.5 mi West 4.6 mph 21.9 mph 0.00 in Snow Light Snow
1:54 AM 32.0 °F 24.2 °F 23.0 °F 69% 29.79 in 3.0 mi WSW 9.2 mph 24.2 mph 0.00 in Snow Light Snow
2:25 AM 33.8 °F 23.2 °F 21.2 °F 60% 29.78 in 1.8 mi WSW 17.3 mph 42.6 mph 0.00 in Snow Light Snow
2:34 AM 33.8 °F 22.5 °F 21.2 °F 60% 29.79 in 3.0 mi WNW 19.6 mph 41.4 mph 0.00 in Snow Light Snow
2:54 AM 33.1 °F 23.4 °F 21.9 °F 64% 29.83 in 3.0 mi WNW 13.8 mph 33.4 mph 0.00 in Snow Light Snow
3:14 AM 33.8 °F 27.0 °F 21.2 °F 60% 29.81 in 1.8 mi WNW 8.1 mph 33.4 mph 0.00 in Snow Light Snow
3:28 AM 32.0 °F 24.8 °F 23.0 °F 69% 29.83 in 2.0 mi WNW 8.1 mph 24.2 mph 0.00 in Snow Light Snow
3:38 AM 33.8 °F 22.8 °F 21.2 °F 60% 29.83 in 3.0 mi NW 18.4 mph 27.6 mph 0.00 in Snow Light Snow
3:54 AM 33.1 °F 22.6 °F 21.0 °F 61% 29.86 in 3.0 mi WNW 16.1 mph 32.2 mph 0.00 in Snow Light Snow
4:54 AM 32.0 °F 21.6 °F 19.9 °F 61% 29.90 in 7.0 mi NW 15.0 mph 28.8 mph 0.00 in Snow Light Snow
5:54 AM 28.9 °F 19.2 °F 17.1 °F 61% 29.99 in 10.0 mi NNW 11.5 mph 24.2 mph 0.00 in   Mostly Cloudy
6:54 AM 27.0 °F 15.2 °F 14.0 °F 58% 30.04 in 10.0 mi NNW 15.0 mph 21.9 mph N/A   Scattered Clouds
7:54 AM 27.0 °F 14.3 °F 16.0 °F 63% 30.10 in 6.0 mi NW 17.3 mph 29.9 mph 0.00 in   Overcast
8:36 AM 24.8 °F 12.4 °F 15.8 °F 69% 30.09 in 2.0 mi North 15.0 mph 26.5 mph 0.00 in Snow Light Snow
8:46 AM 24.8 °F 16.1 °F 15.8 °F 69% 30.10 in 4.0 mi North 8.1 mph - 0.00 in Snow Light Snow
8:52 AM 24.8 °F 17.9 °F 15.8 °F 69% 30.11 in 2.5 mi Variable 5.8 mph 17.3 mph 0.00 in Snow Light Snow
8:54 AM 24.1 °F 18.2 °F 16.0 °F 71% 30.15 in 2.5 mi North 4.6 mph 17.3 mph 0.00 in Snow Light Snow
9:03 AM 23.0 °F 17.0 °F 15.8 °F 74% 30.14 in 1.8 mi Variable 4.6 mph - 0.00 in Snow Light Snow
9:10 AM 21.2 °F 11.7 °F 14.0 °F 74% 30.15 in 1.0 mi North 8.1 mph 18.4 mph 0.00 in Snow Light Snow
9:28 AM 21.2 °F 11.7 °F 12.2 °F 68% 30.16 in 1.5 mi NNW 8.1 mph 17.3 mph 0.00 in Snow Light Snow
9:54 AM 21.0 °F 11.4 °F 12.9 °F 71% 30.21 in 1.5 mi NNW 8.1 mph - 0.00 in Snow Light Snow
10:06 AM 21.2 °F 10.9 °F 12.2 °F 68% 30.19 in 2.5 mi NNW 9.2 mph - 0.00 in Snow Light Snow
10:21 AM 21.2 °F 12.6 °F 10.4 °F 63% 30.20 in 4.0 mi Variable 6.9 mph 17.3 mph 0.00 in Snow Light Snow
10:52 AM 21.2 °F 11.7 °F 10.4 °F 63% 30.19 in 5.0 mi NNW 8.1 mph - 0.00 in Snow Light Snow
10:54 AM 21.9 °F 11.7 °F 10.9 °F 63% 30.23 in 6.0 mi NNW 9.2 mph - 0.00 in Snow Light Snow
12:54 PM 24.1 °F 13.7 °F 10.0 °F 55% 30.24 in 10.0 mi NNW 10.4 mph - N/A   Overcast
1:54 PM 23.0 °F 12.4 °F 9.0 °F 55% 30.23 in 10.0 mi North 10.4 mph - N/A   Clear
2:54 PM 21.9 °F 15.7 °F 9.0 °F 58% 30.24 in 10.0 mi NNE 4.6 mph - N/A   Clear
3:54 PM 19.9 °F - 8.1 °F 60% 30.25 in 10.0 mi Calm Calm - N/A   Clear
4:54 PM 15.1 °F - 6.1 °F 68% 30.25 in 10.0 mi Calm Calm - N/A   Clear
6:54 PM 7.0 °F - 1.9 °F 80% 30.26 in 10.0 mi Calm Calm - N/A   Clear
7:54 PM 6.1 °F - 1.0 °F 80% 30.25 in 10.0 mi Calm Calm - N/A   Clear
8:54 PM 3.0 °F - -0.9 °F 84% 30.27 in 10.0 mi Calm Calm - N/A   Clear
9:54 PM 3.0 °F - -0.9 °F 84% 30.25 in 10.0 mi Calm Calm - N/A   Clear
10:54 PM 3.0 °F - -0.9 °F 84% 30.25 in 10.0 mi Calm Calm - N/A   Clear
11:54 PM 3.9 °F -5.3 °F -0.0 °F 84% 30.24 in 10.0 mi SSW 4.6 mph - N/A   Mostly Cloudy